St. Joseph, KS

5:42 PM CDT on May 25, 2017 (GMT -0500)
Rosecrans Memorial

Weather History for KSTJ - January, 2013

Change the Weather History Date:

Wednesday, January 16, 2013

  Actual Average Record
Temperature  
Mean Temperature 33 °F 27 °F  
Max Temperature 50 °F 37 °F 66 °F (1990)
Min Temperature 16 °F 17 °F -12 °F (1977)
Degree Days  
Heating Degree Days 32 38  
Month to date heating degree days 577 611  
Since 1 July heating degree days 2673 2824  
Cooling Degree Days 0 0  
Month to date cooling degree days 0 0  
Year to date cooling degree days 0 0  
Moisture  
Dew Point 22 °F    
Average Humidity 62    
Maximum Humidity 78    
Minimum Humidity 46    
Precipitation  
Precipitation 0.00 in 0.02 in 0.58 in (1941)
Month to date precipitation 0.30 0.27  
Year to date precipitation 0.30 0.27  
Sea Level Pressure  
Sea Level Pressure 30.10 in    
Wind  
Wind Speed 7 mph (SW)    
Max Wind Speed 14 mph    
Max Gust Speed 17 mph    
Visibility 10 miles    
Events      
T = Trace of Precipitation, MM = Missing Value Source: NWS Daily Summary

Daily Weather History Graph

Daily Weather History Graph

Search for Another Location

Airport or City:

Trip Planner

Search our weather history database for the weather conditions in past years. The results will help you decide how hot, cold, wet, or windy it might be!

Date:

Astronomy

Jan. 16, 2013 Rise Set
Actual Time 7:38 AM CST 5:20 PM CST
Civil Twilight 7:08 AM CST 5:50 PM CST
Nautical Twilight 6:35 AM CST 6:23 PM CST
Astronomical Twilight 6:03 AM CST 6:56 PM CST
Moon 10:16 AM CST (1/16) 11:12 PM CST (1/16)
Length of Visible Light 10h 41m
Length of Day
9h 42m
Waxing Crescent, 28% of the Moon is Illuminated
Jan 16
Waxing Crescent
Jan 18
First Quarter
Jan 26
Full
Feb 3
Last Quarter
Feb 10
New

Hourly Weather History & Observations

Time (CST) Temp. Windchill Dew Point Humidity Pressure Visibility Wind Dir Wind Speed Gust Speed Precip Events Conditions
12:53 AM 18.0 °F 9.8 °F 10.0 °F 71% 30.17 in 10.0 mi South 5.8 mph - N/A   Clear
1:53 AM 18.0 °F 9.8 °F 10.0 °F 71% 30.16 in 10.0 mi SSW 5.8 mph - N/A   Clear
3:53 AM 19.9 °F 9.3 °F 12.0 °F 71% 30.12 in 10.0 mi SSW 9.2 mph - N/A   Clear
4:53 AM 21.9 °F 9.2 °F 12.0 °F 66% 30.08 in 10.0 mi SSW 13.8 mph - N/A   Clear
6:53 AM 21.9 °F 13.4 °F 12.9 °F 68% 30.07 in 10.0 mi SSW 6.9 mph - N/A   Clear
7:53 AM 23.0 °F 15.8 °F 14.0 °F 68% 30.07 in 10.0 mi SSW 5.8 mph - N/A   Clear
8:53 AM 27.0 °F 21.6 °F 17.1 °F 66% 30.07 in 10.0 mi South 4.6 mph - N/A   Mostly Cloudy
9:53 AM 30.9 °F 23.5 °F 19.0 °F 61% 30.07 in 10.0 mi SW 8.1 mph - N/A   Overcast
10:53 AM 34.0 °F 28.8 °F 19.9 °F 56% 30.06 in 10.0 mi SW 5.8 mph - N/A   Overcast
11:53 AM 39.0 °F 33.4 °F 23.0 °F 53% 30.05 in 10.0 mi WSW 8.1 mph - N/A   Clear
12:53 PM 43.0 °F 37.2 °F 26.1 °F 51% 30.03 in 10.0 mi West 10.4 mph - N/A   Overcast
2:53 PM 48.9 °F - 30.0 °F 48% 30.02 in 10.0 mi West 12.7 mph - N/A   Clear
3:53 PM 50.0 °F - 30.9 °F 48% 30.03 in 10.0 mi West 6.9 mph - N/A   Clear
4:53 PM 46.9 °F - 32.0 °F 56% 30.04 in 10.0 mi WSW 3.5 mph - N/A   Clear
5:53 PM 36.0 °F 32.1 °F 28.0 °F 73% 30.07 in 10.0 mi SW 4.6 mph - N/A   Clear
6:53 PM 35.1 °F - 28.0 °F 76% 30.10 in 10.0 mi Calm Calm - N/A   Clear
7:53 PM 32.0 °F - 26.1 °F 79% 30.13 in 10.0 mi Calm Calm - N/A   Clear
8:53 PM 30.0 °F - 25.0 °F 82% 30.14 in 10.0 mi Calm Calm - N/A   Clear
9:53 PM 33.1 °F 27.7 °F 27.0 °F 78% 30.16 in 10.0 mi North 5.8 mph - N/A   Clear
10:53 PM 37.0 °F 29.8 °F 28.9 °F 73% 30.19 in 10.0 mi NNW 10.4 mph - N/A   Clear
11:53 PM 36.0 °F 29.6 °F 28.9 °F 76% 30.23 in 10.0 mi NNW 8.1 mph - N/A   Scattered Clouds